Location: Dal�� Lhota
(48.7500°N, 14.0167°E)
Time: 17:16:57
(UTC+00:00)

Vanguard 3 - Pass Details

Date: 01 August 2021
Orbit: 510 x 3260 km, 33.3° (Epoch: 20 September)

Event Time Altitude Azimuth Distance (km) Brightness Sun altitude
Rises 23:46:37 0° 276° (W) 7,219 12.0 -22.8°
Reaches altitude 10° 23:53:54 10° 262° (W) 6,166 11.4 -22.5°
Maximum altitude 00:04:37 18° 227° (SW) 5,119 10.7 -22.2°
Enters shadow 00:04:51 18° 227° (SW) 5,108 10.7 -22.1°
Drops below altitude 10° 00:13:53 10° 192° (SSW) 5,184 - -21.8°
Sets 00:19:13 0° 175° (S) 5,714 - -21.5°
